Simultaneous Nadir Overpasses (SNOs) Predictions

Prediction of SNOs between AURA and NPP Satellite Orbit:

Table of predicted SNOs for the next 14.0 days since TLE Epoch: 5/15/2021
Index Date (AURA) Time (AURA) Lat,Lon (AURA) SZA (AURA ) Date (NPP) Time (NPP) Lat,Lon (NPP) SZA (NPP ) Distance(km) Time Diff (sec)
1 05/17/2021 03:41:25 79.42, 20.82 73.33 05/17/2021 03:41:01 79.42, 20.85 73.34 0.73 24
2 05/17/2021 04:30:47 -79.61,-170.17 106.98 05/17/2021 04:31:41 -79.61,-170.30 106.99 2.92 54
3 05/19/2021 19:08:33 -79.22, -32.23 106.95 05/19/2021 19:07:20 -79.22, -32.26 106.89 0.75 73
4 05/19/2021 19:57:50 79.56, 137.67 72.56 05/19/2021 19:57:54 79.56, 137.77 72.53 2.31 4
5 05/22/2021 11:24:58 -79.36, 84.56 107.67 05/22/2021 11:24:13 -79.37, 84.62 107.65 1.34 45
6 05/22/2021 12:14:18 79.58,-106.31 72.01 05/22/2021 12:14:51 79.57,-106.40 72.00 2.02 33
7 05/25/2021 03:41:24 -79.42,-159.18 108.23 05/25/2021 03:41:08 -79.41,-159.29 108.20 2.53 16
8 05/25/2021 04:30:42 79.70, 10.50 71.33 05/25/2021 04:31:43 79.70, 10.53 71.28 0.64 61
9 05/27/2021 19:08:30 79.22, 147.77 71.63 05/27/2021 19:07:25 79.21, 147.66 71.70 2.46 65



Historial Predications of SNOs between AURA and NPP
